Location: *
(28.3744°N, 81.5492°W)
Time: 03:34:48
(UTC+00:00)

Hubble Space Telescope - Pass Details

Date: 15 June 2025
Orbit: 488 x 490 km, 28.5° (Epoch: 11 July)

Event Time Altitude Azimuth Distance (km) Brightness Sun altitude
Rises 00:54:27 0° 272° (W) 2,539 5.4 -6.5°
Reaches altitude 10° 00:56:55 10° 259° (WSW) 1,659 4.0 -7.0°
Maximum altitude 01:00:06 25° 202° (SSW) 1,007 2.1 -7.6°
Drops below altitude 10° 01:03:16 10° 146° (SE) 1,657 2.7 -8.2°
Enters shadow 01:03:30 - 144° (SE) 1,731 2.8 -8.2°
